This is the latest recevied weather packets stored in our database for station/object N7BTW-13. If no packets are shown the sender has not sent any weather packets the latest 10 day(s).
| Time | Temp. | Humidity | Pressure | Rain* | Wind** | Luminosity | Snow |
|---|---|---|---|---|---|---|---|
| 1787635807 | 21.11° C | 66% | - | 0 mm | - | - | - |
| 1787635206 | 21.67° C | 65% | - | 0 mm | - | - | - |
| 1787634607 | 21.67° C | 64% | - | 0 mm | - | - | - |
| 1787634007 | 22.22° C | 63% | - | 0 mm | - | - | - |
| 1787633409 | 22.78° C | 62% | - | 0 mm | - | - | - |
| 1787632807 | 22.78° C | 62% | - | 0 mm | - | - | - |
| 1787632208 | 23.33° C | 57% | - | 0 mm | - | - | - |
| 1787631608 | 23.89° C | 57% | - | 0 mm | - | - | - |
| 1787631008 | 24.44° C | 55% | - | 0 mm | - | - | - |
| 1787630407 | 25° C | 52% | - | 0 mm | - | - | - |
| 1787629809 | 26.11° C | 52% | - | 0 mm | - | - | - |
| 1787629208 | 26.67° C | 49% | - | 0 mm | - | - | - |
| 1787628606 | 27.78° C | 46% | - | 0 mm | - | - | - |
| 1787628008 | 28.89° C | 43% | - | 0 mm | - | - | - |
| 1787627407 | 30° C | 41% | - | 0 mm | - | - | - |
| 1787626808 | 31.11° C | 40% | - | 0 mm | - | - | - |
| 1787626207 | 32.22° C | 37% | - | 0 mm | - | - | - |
| 1787625606 | 33.33° C | 35% | - | 0 mm | - | - | - |
| 1787625009 | 32.78° C | 36% | - | 0 mm | - | - | - |
| 1787624408 | 33.33° C | 35% | - | 0 mm | - | - | - |
| 1787623808 | 34.44° C | 33% | - | 0 mm | - | - | - |
| 1787623207 | 34.44° C | 33% | - | 0 mm | - | - | - |
| 1787622608 | 35.56° C | 32% | - | 0 mm | - | - | - |
| 1787622007 | 35.56° C | 30% | - | 0 mm | - | - | - |
| 1787621408 | 36.11° C | 30% | - | 0 mm | - | - | - |
* Rain latest hour (hover to see other rain measurements)
** Current wind speed in m/s (hover to see current wind gust speed)